Flight Information

DEPARTURE
PASCO, WA
Elevation:
410
Runways:
3L/21R - 7707x150 - ASPH-G
3R/21L - 4423x75 - ASPH-F
12/30 - 7704x150 - ASPH-G
ATIS:
125.65
Clearance Delivery:
120
Ground:
121.8
Tower:
TRI-CITIES TOWER 135.3
DESTINATION
,
Elevation:
TPA:
1000 (est.)


6579.3 NM68° True-19° Var49° HDG

Flight Plan:
(click to file on line)

1. Type
2. Aircraft Identification
3. Aircraft Type / Special Equipment
4. True Airspeed
kts
5. Departure Airport
(ICAO code)
6. Arriving Airport
(ICAO code)
7. Cruising Altitude
ft
8. Alternate Airport
(ICAO code)
9. Route of Flight
10. Remarks


00:00:00 Departure ATIS: Destination ATIS:

Clearance Limit:
Route:
Altitude: Expect in minutes
Frequency:
Transponder: (7500 Hijack / 7600 Lost Comms / 7700 Emergency)


KPSC 190253Z 00000KT 10SM CLR 01/M02 A3052 RMK AO2 SLP341 T00061017 51014 $
Time: 2021-01-19T02:53:00Z
1611025174
Winds: calm
Visibility: 10.0 sm
Clouds (AGL): CLR
Temperature: 0.6 C
Dew Point: -1.7 C
Pressure: 30.519686 in Hgbr


Notes:

Data extracted from FAA Digital Chart Supplement. Effective: 0901Z Thursday, Dec 31, 2020 to 0901Z Thursday, Jan 28, 2021
Current ATIS data is provided courtisy of PilotEdge.